Regional Weather Roundup
Issued by NWS Cleveland, OH

Home | Current Version | Previous Version | Graphics & Text | Print | Product List | Glossary On
Versions: 1 2 3 4 5 6 7 8 9 10 11 12 13 14 15 16 17 18 19 20 21 22 23 24 25 26 27 28 29 30 31 32 33 34 35 36 37 38 39 40 41 42 43 44 45 46 47 48 49 50
377
ASUS41 KCLE 272210
RWRCLE
OHIO REGIONAL WEATHER ROUNDUP
NATIONAL WEATHER SERVICE CLEVELAND, OH
600 PM EDT TUE JUN 27 2017

NOTE: "FAIR" INDICATES FEW OR NO CLOUDS BELOW 12,000 FEET WITH NO
SIGNIFICANT WEATHER AND/OR OBSTRUCTIONS TO VISIBILITY.

OHZ001>008-015>018-024>027-034-035-043-044-272300-
   NORTHWEST OHIO

CITY           SKY/WX    TMP DP  RH WIND       PRES   REMARKS
DEFIANCE       PTSUNNY   70  45  40 VRB7      30.06F
FINDLAY        MOSUNNY   70  44  39 W5        30.07F
TOLEDO EXPRESS MOSUNNY   72  46  39 W7        30.04F
TOLEDO EXEC    SUNNY     73  46  38 W13       30.06F
LIMA           MOSUNNY   69  47  45 W9        30.09F
$$

OHZ009>014-019>023-028>033-038-089-272300-
   NORTHEAST OHIO

CITY           SKY/WX    TMP DP  RH WIND       PRES   REMARKS
CLE-HOPKINS    MOSUNNY   71  39  31 NW12      30.09S
CLE-LAKEFRONT  SUNNY     69  45  41 W10       30.06F
CUY CO. ARPT   MOSUNNY   70  46  43 NW16      30.08S
LORAIN-ELYRIA  SUNNY     69  39  33 NW13      30.08F
ASHTABULA      MOSUNNY   66  46  48 W13       30.07S
AKRON-CANTON   MOSUNNY   71  44  37 W10       30.08S
WOOSTER        MOSUNNY   67  42  40 W13       30.09S
MANSFIELD      MOSUNNY   69  44  40 SW7       30.10S
YOUNGSTOWN     MOSUNNY   67  44  43 NW8       30.07S
$$

OHZ042-051>053-060>062-070>072-077>081-272300-
  SOUTHWEST OHIO

CITY           SKY/WX    TMP DP  RH WIND       PRES   REMARKS
CINC-COVINGTON PTSUNNY   74  49  41 N8        30.11F
CINC-LUNKEN    PTSUNNY   75  50  41 NW6       30.10F
HAMILTON       MOSUNNY   75  52  44 N5        30.11F
DAYTON         MOSUNNY   72  43  35 W12       30.11F
WRIGHT-PAT AFB DRIZZLE   70  44  39 NW7       30.10F
DAYTON GENERAL MOSUNNY   72  45  37 VRB5      30.10F
WILMINGTON     MOSUNNY   72  48  42 VRB5      30.10F
$$

OHZ036-037-039>041-045>050-054>059-063>069-073>076-082>088-272300-
  CENTRAL AND SOUTHEAST OHIO

CITY           SKY/WX    TMP DP  RH WIND       PRES   REMARKS
COLUMBUS       MOSUNNY   71  45  39 NW8       30.09S
OSU AIRPORT    PTSUNNY   69  46  43 W7        30.09F
BOLTON FIELD   MOSUNNY   70  45  40 NW7G17    30.10F
RICKENBACK AFB SUNNY     71  47  41 W9        30.09S
NEWARK         MOSUNNY   70  42  36 W8        30.08F
MARION         MOSUNNY   70  41  34 W8        30.09F
LANCASTER      MOSUNNY   71  49  45 W8        30.09F
ZANESVILLE     PTSUNNY   70  46  42 W7        30.08F
NEW PHILLY     NOT AVBL
$$




USA.gov is the U.S. government's official web portal to all federal, state and local government web resources and services.